Starlink 1011

decayed
NORAD ID: 44717 Int'l Des: 2019-074 Owner: SPXS Country: US Constellation: starlink
LEOCIRCULAR

关于 Starlink 1011

正在加载描述...

高度历史

Altitude vs Time

uPlot chart will show altitude changes over time

两行轨道根数

1 44717U 19074E 25340.02962256 .10366512 12452-4 28445-3 0 9998
2 44717 53.0288 205.3540 0006732 242.0271 118.0096 16.45144333335219
Epoch: Dec 6, 2025 • Age: 1434 hours

当前状态

Position data unavailable
发射日期 Nov 11, 2019
运行时间 6.2 years
衰减日期 Dec 6, 2025
类型 internet

技术详情

分类 Payload
质量 260.00 kg
干质量 248.00 kg
总质量 260.00 kg
长度 0.20 m
直径 2.80 m
跨度 9.00 m
形状 Box + pan
制造商 SPXS
平台类型 Starlink
阶段状态 Unknown Transfer Status
所有者/国家 SPXS/US

大型星座

Loading constellations...